Flag for Switzerland Weather past 2 weeks in Schaffhausen, Schaffhausen, Switzerland

Now
46 °F

Cool.


Feels Like: 46 °F
Forecast: 36 / 60 °F
Wind: 1 mph from Southwest

Location: Zurich-Kloten

Current Time: Oct 25, 2014 at 11:02:49 AM

Latest Report: Oct 25, 2014 at 10:00 AM


Visibility: N/A

Pressure: 30.18 "Hg

Humidity: 92%

Dew point: 44 °F

Location of SchaffhausenLocation

Historic Weather in Schaffhausen — Graph

°F

Schaffhausen temperature yesterday

Maximum temperature yesterday: 53 °F (at 3:00 PM)
Minimum temperature yesterday: 39 °F (at 4:00 AM)
Average temperature yesterday: 45 °F

Past Weeks' High & Low Weather Summary

 TemperatureHumidityPressure
High72 °F (Oct 19, 4:00 PM)100% (Oct 12, 4:00 AM)30.34 "Hg (Oct 12, 4:00 AM)
Low39 °F (Oct 24, 4:00 AM)48% (Oct 19, 4:00 PM)29.73 "Hg (Oct 21, 7:00 PM)
Average55 °F85%30.03 "Hg
* Reported Oct 10 9:00 AM — Oct 25 9:00 AM, Schaffhausen, Weather by CustomWeather, © 2014

Note: Actual official high and low records may vary slightly from our data, if they occured in-between our weather recording intervals... More about our weather records

Advertising

Schaffhausen weather history for previous 24 hours

 ConditionsComfort  
Time TempWeatherWind HumidityBarometerVisibility
9:00 AM
Oct 25
45 °FQuite cool.2 mph95%30.19 "HgN/A
8:00 AM44 °FLight rain. Overcast.1 mph96%30.17 "Hg5 mi
7:00 AM44 °FQuite cool.2 mph95%30.16 "HgN/A
6:00 AM43 °FQuite cool.2 mph97%30.16 "HgN/A
5:00 AM43 °FFog.No wind95%30.16 "Hg6 mi
4:00 AM42 °FQuite cool.2 mph96%30.15 "HgN/A
3:00 AM42 °FQuite cool.1 mph95%30.16 "HgN/A
2:00 AM42 °FFog.No wind95%30.17 "Hg6 mi
1:00 AM40 °FChilly.2 mph95%30.17 "HgN/A
12:00 AM42 °FQuite cool.2 mph94%30.18 "HgN/A
11:00 PM
Oct 24
42 °FFog.1 mph94%30.19 "Hg6 mi
10:00 PM43 °FQuite cool.1 mph92%30.17 "HgN/A
9:00 PM44 °FQuite cool.2 mph88%30.16 "HgN/A
8:00 PM42 °FPassing clouds.3 mph89%30.17 "Hg11 mi
7:00 PM48 °FCool.3 mph73%30.14 "HgN/A
6:00 PM50 °FCool.7 mph68%30.14 "HgN/A
5:00 PM52 °FScattered clouds.10 mph66%30.14 "Hg16 mi
4:00 PM51 °FCool.10 mph67%30.15 "HgN/A
3:00 PM53 °FCool.9 mph66%30.16 "HgN/A
2:00 PM50 °FScattered clouds.10 mph69%30.17 "Hg14 mi
1:00 PM49 °FCool.8 mph73%30.20 "HgN/A
12:00 PM46 °FCool.9 mph78%30.22 "HgN/A
11:00 AM45 °FFog.3 mph86%30.24 "Hg6 mi
Weather by CustomWeather, © 2014

See weather overviewHow to use our weather pages